Orbital Elements at Epoch 2459200.5 (2020-Dec-17.0) TDB
Reference: JPL 12 (heliocentric ecliptic J2000)
Element | Value | Uncertainty (1-sigma) | Units |
e | .1685210938859174 | 6.1589e-08 | |
a | 2.455881704492538 | 1.5506e-08 | au |
q | 2.042013833197045 | 1.4491e-07 | au |
i | 4.838815508153569 | 7.2475e-06 | deg |
node | 165.3367844234206 | 5.3261e-05 | deg |
peri | 105.1094678039343 | 5.7366e-05 | deg |
M | 71.30072404274105 | 2.0195e-05 | deg |
tp | 2458922.079613642322 (2020-Mar-13.57961364) | 7.8424e-05 | TDB |
period | 1405.754856411847 3.85 | 1.3314e-05 3.645e-08 | d yr |
n | .2560901698884334 | 2.4254e-09 | deg/d |
Q | 2.869749575788032 | 1.8119e-08 | au |
|
| | Orbit Determination Parameters
Additional Information
|